Regional Weather Roundup
Issued by NWS

Home | Current Version | Previous Version | Text Only | Print | Product List | Glossary Off
Versions: 1 2 3 4 5 6 7 8 9 10 11 12 13 14 15 16 17 18 19 20 21 22 23 24 25 26 27 28 29 30 31 32 33 34 35 36 37 38 39 40 41 42 43 44 45 46 47 48 49 50

354
ASUS44 KMEG 210210
RWRTN
TENNESSEE HOURLY STATE WEATHER ROUNDUP
NATIONAL WEATHER SERVICE MEMPHIS TN
800 PM CST MON FEB 20 2017

TNZ002-004-019-021-049-052-054-088>092-210300-
WEST TENNESSEE

CITY           SKY/WX    TMP DP  RH WIND       PRES   REMARKS
MEMPHIS INTL   CLOUDY    71  54  54 SE13      29.93F
NWS MEMPHIS      N/A     70 N/A N/A MISG        N/A
JACKSON        CLOUDY    62  52  69 CALM      29.98F
UNION CITY     CLEAR     64  45  48 CALM      29.97F
PARIS          CLEAR     61  48  63 SE6       30.01F
HUNTINGDON     CLEAR     64  50  59 E5        29.99F
$$

TNZ008-025-027-028-033-062-065-066-210300-
NORTH MIDDLE TENNESSEE

CITY           SKY/WX    TMP DP  RH WIND       PRES   REMARKS
NASHVILLE      CLOUDY    64  44  48 S6        30.07S
PORTLAND       CLEAR     61  45  55 CALM      30.07S
CLARKSVILLE    CLOUDY    60  46  59 SE7       30.04S
SMYRNA         CLOUDY    59  48  67 CALM      30.09R
COOKEVILLE     CLEAR     63  46  55 S6        30.09F
GALLATIN       CLEAR     61  46  59 CALM      30.10S
CROSSVILLE     MOCLDY    54  44  69 CALM      30.15R
$$

TNZ061-075-076-078-094-096-097-210300-
SOUTH MIDDLE TENNESSEE

CITY           SKY/WX    TMP DP  RH WIND       PRES   REMARKS
FAYETTEVILLE   CLEAR     61  48  63 SE6       30.08F HAZE
TULLAHOMA      CLEAR     63  43  48 SE3       30.10S
MCMINNVILLE    CLEAR     61  46  59 CALM      30.10S
COLUMBIA       CLEAR     59  52  77 E3        30.05S
SHELBYVILLE    CLEAR     63  48  59 SE5       30.09S
$$

TNZ017-018-042-046-047-210300-
NORTHEAST TENNESSEE

CITY           SKY/WX    TMP DP  RH WIND       PRES   REMARKS
TRI CITIES     CLOUDY    51  37  58 CALM      30.15R
ELIZABETHTON   CLOUDY    48  39  71 CALM      30.15R
$$

TNZ012-013-036-069-073-074-210300-
CENTRAL EAST TENNESSEE

CITY           SKY/WX    TMP DP  RH WIND       PRES   REMARKS
KNOXVILLE      CLOUDY    57  44  62 SW5       30.12R
GATLINBURG     CLEAR     50  43  76 CALM      30.13R
MORRISTOWN     CLEAR     55  45  67 CALM      30.13R
JACKSBORO      CLEAR     52  45  76 CALM      30.16S
$$

TNZ083-085-099-210300-
SOUTHEAST TENNESSEE

CITY           SKY/WX    TMP DP  RH WIND       PRES   REMARKS
CHATTANOOGA    CLOUDY    58  51  78 CALM      30.12R
$$

SKY/WX REPORTED AS FAIR MEANS FEW OR NO CLOUDS BELOW
12 THOUSAND FEET.





USA.gov is the U.S. government's official web portal to all federal, state and local government web resources and services.